Regional Weather Roundup
Issued by NWS

Home | Current Version | Previous Version | Graphics & Text | Print | Product List | Glossary On
Versions: 1 2 3 4 5 6 7 8 9 10 11 12 13 14 15 16 17 18 19 20 21 22 23 24 25 26 27 28 29 30 31 32 33 34 35 36 37 38 39 40 41 42 43 44 45 46 47 48 49 50
000
ASUS43 KIND 272259
RWRIN

WEATHER ROUNDUP FOR INDIANA
NATIONAL WEATHER SERVICE INDIANAPOLIS IN
700 PM EDT TUE SEP 27 2016

NOTE: "FAIR" INDICATES FEW OR NO CLOUDS BELOW 12,000 FEET WITH NO
SIGNIFICANT WEATHER AND/OR OBSTRUCTIONS TO VISIBILITY.

* - STATION DOES NOT REPORT WEATHER SUCH AS PRECIPITATION OR FOG.

+ - STATION NOT QUALITY CONTROLLED BY THE NATIONAL WEATHER SERVICE.
    USE DATA WITH CAUTION...ESPECIALLY DEWPOINT AND RELATIVE
    HUMIDITY OBSERVATIONS.

INZ001>003-010>013-019-020-280000-
NORTHWEST INDIANA

CITY           SKY/WX    TMP DP  RH WIND       PRES   REMARKS
GARY /AIRPORT/ MOCLDY    70  30  23 W15       29.75S
KNOX *+        PTCLDY   N/A N/A N/A W8G16     29.76R
MONTICELLO +   CLEAR     71  16  12 W9        29.77S
RENSSELAER +   CLEAR     70  23  17 W9G17     29.77S

$$

LMZ046-743>745-280000-
SOUTHERN LAKE MICHIGAN

STATION/POSITION TIME  TEMP    WIND        PRES    WAVE
                       AIR SEA DIR/SP/G            HT
                 (UTC) (F)     (DEG/KT/KT) (MB)    (FT)
BURNS HARBOR     2203   68     270/ 15/ 23 1007.8R
MICHIGAN CITY    2200   67     240/ 21/ 22   N/A
5NW MICH CITY    2200   68 67  280/ 16/ 19   N/A     5

$$

INZ004-005-014>016-021>024-280000-
NORTH CENTRAL INDIANA

CITY           SKY/WX    TMP DP  RH WIND       PRES   REMARKS
ELKHART        CLEAR    N/A N/A N/A W6        29.76S
GOSHEN         CLEAR     65  33  30 W10       29.76R
PERU/GRISSOM   CLEAR     69  34  27 W13       29.77R
SOUTH BEND     CLEAR     63  38  39 W9        29.76S
WARSAW +       CLEAR     61  30  31 W8        29.76R

$$

INZ006>009-017-018-025>027-280000-
NORTHEAST INDIANA

CITY           SKY/WX    TMP DP  RH WIND       PRES   REMARKS
ANGOLA *+        N/A     66  59  77 W3        29.77R
AUBURN +       CLEAR     66  32  28 W5        29.78R
FORT WAYNE     PTCLDY    70  29  21 W10G20    29.77R
KENDALLVILLE + CLEAR     67  33  28 W5        29.77R

$$

INZ028-029-035-036-043>045-051>053-280000-
WEST CENTRAL INDIANA

CITY           SKY/WX    TMP DP  RH WIND       PRES   REMARKS
CRAWFORDSVL +  CLEAR     69  40  33 W6        29.81R
GREENCASTLE +  CLEAR     68  50  52 CALM      29.82S
LAFAYETTE      CLEAR     69  37  30 W12       29.78R
TERRE HAUTE    CLEAR     73  44  35 W12       29.82S

$$

INZ030>032-037>040-046>048-054>057-064-065-280000-
CENTRAL INDIANA

CITY           SKY/WX    TMP DP  RH WIND       PRES   REMARKS
COLUMBUS       PTCLDY    70  50  49 SW9       29.84S
FRANKFORT +    CLEAR     73  34  24 W10G21    29.81S
INDIANAPOLIS   PTCLDY    70  42  36 SW13      29.81S
-EAGLE CREEK   CLEAR     72  39  30 SW9       29.80S
MT COMFORT *+  CLEAR     72  39  30 SW9       29.82S
SHELBYVILLE    CLEAR     72  46  39 SW8       29.82S
ZIONSVILLE +   CLEAR     69  39  33 W9        29.81R

$$

INZ033-034-041-042-049-050-058-059-280000-
EAST CENTRAL INDIANA

CITY           SKY/WX    TMP DP  RH WIND       PRES   REMARKS
MUNCIE         CLEAR     72  36  26 W9        29.80R

$$

INZ060-061-067>069-081>083-085>088-280000-
SOUTHWEST INDIANA

CITY           SKY/WX    TMP DP  RH WIND       PRES   REMARKS
EVANSVILLE     CLEAR     74  48  39 W13       29.88S
HUNTINGBURG *+   N/A     73  45  35 SW14      29.87S

$$

INZ062-063-066-070>080-084-089>092-280000-
SOUTH CENTRAL AND SOUTHEAST INDIANA

CITY           SKY/WX    TMP DP  RH WIND       PRES   REMARKS
BLOOMINGTON    CLEAR     72  49  44 W3        29.84S
MADISON *+     PTCLDY    70  45  40 SW6       29.88S
SEYMOUR +      CLEAR     73  48  40 SW9       29.85S

$$





USA.gov is the U.S. government's official web portal to all federal, state and local government web resources and services.